EW5259 Weather Reports


Display with metric or nautical units.
time (UTC)temp
F
wind
direction
speed
MPH
gust
MPH
rain 1hr
in
rain 24hr
in
rain mn
in
humidity
%
barometer
mb
20260504024555 57 0 0.0 2.0 0.00 0.00 0.00 60 1017.6
20260504023051 58 0 0.0 0.0 0.00 0.00 0.00 59 1017.5
20260504021554 59 0 0.0 2.0 0.00 0.00 0.00 57 1017.5
20260504020100 59 0 0.0 2.0 0.00 0.00 0.00 57 1017.6
20260504014555 60 0 0.0 1.0 0.00 0.00 0.00 56 1017.5
20260504013053 61 0 0.0 2.0 0.00 0.00 0.00 55 1017.4
20260504011550 61 0 0.0 2.0 0.00 0.00 0.00 54 1017.1
20260504010051 62 0 0.0 1.0 0.00 0.00 0.00 51 1017.0
20260504004551 63 56 0.0 1.0 0.00 0.00 0.00 49 1016.9
20260504003048 63 0 0.0 1.0 0.00 0.00 0.00 48 1016.8
20260504001604 64 0 0.0 2.0 0.00 0.00 0.00 47 1016.8
20260504000057 64 0 0.0 2.0 0.00 0.00 0.00 47 1016.9
20260503234550 65 0 0.0 2.0 0.00 0.00 0.00 47 1017.0
20260503233049 65 360 0.0 2.0 0.00 0.00 0.00 48 1017.0
20260503231556 65 0 0.0 3.0 0.00 0.00 0.00 48 1017.1
20260503230052 66 0 0.0 2.0 0.00 0.00 0.00 47 1017.2
20260503224547 66 80 1.0 3.0 0.00 0.00 0.00 48 1017.3
20260503223051 67 0 0.0 3.0 0.00 0.00 0.00 47 1017.4
20260503221550 67 87 0.0 3.0 0.00 0.00 0.00 45 1017.3
20260503220053 67 314 1.0 3.0 0.00 0.00 0.00 44 1017.3
20260503214601 67 102 0.0 3.0 0.00 0.00 0.00 44 1017.3
20260503213053 67 113 0.0 6.0 0.00 0.00 0.00 44 1017.6
20260503211557 67 286 0.0 3.0 0.00 0.00 0.00 44 1017.9
20260503210054 68 325 1.0 4.0 0.00 0.00 0.00 45 1018.1
20260503204602 68 342 1.0 4.0 0.00 0.00 0.00 45 1018.4
20260503203054 68 127 1.0 3.0 0.00 0.00 0.00 41 1018.4
20260503201552 68 289 1.0 4.0 0.00 0.00 0.00 41 1018.7
20260503200055 69 268 1.0 3.0 0.00 0.00 0.00 41 1018.9
20260503194553 69 67 1.0 4.0 0.00 0.00 0.00 37 1018.9
20260503193107 69 0 1.0 4.0 0.00 0.00 0.00 44 1019.3
20260503191553 69 302 1.0 3.0 0.00 0.00 0.00 45 1019.5
20260503190105 68 340 1.0 4.0 0.00 0.00 0.00 42 1019.6
20260503184548 68 37 1.0 4.0 0.00 0.00 0.00 45 1019.8
20260503183102 67 111 2.0 6.0 0.00 0.00 0.00 45 1019.9
20260503181552 65 298 2.0 5.0 0.00 0.00 0.00 53 1020.1
20260503180058 65 254 1.0 5.0 0.00 0.00 0.00 48 1020.3
20260503174557 64 5 1.0 7.0 0.00 0.00 0.00 52 1020.5
20260503173110 63 311 2.0 8.0 0.00 0.00 0.00 56 1020.9
20260503171555 62 117 2.0 9.0 0.00 0.00 0.00 52 1021.0
20260503140104 56 328 3.0 6.0 0.00 0.00 0.00 67 1022.0
20260503100106 47 319 1.0 3.0 0.00 0.00 0.00 80 1020.1
20260503081550 47 0 0.0 2.0 0.00 0.00 0.00 82 1019.2
20260503071600 49 296 1.0 3.0 0.00 0.00 0.00 80 1018.8
20260503054549 51 300 1.0 4.0 0.00 0.00 0.00 74 1018.7
20260503053050 51 331 2.0 4.0 0.00 0.00 0.00 73 1018.6
20260503051556 51 323 2.0 6.0 0.00 0.00 0.00 71 1018.5
20260503050053 52 339 2.0 4.0 0.00 0.00 0.00 69 1018.4
20260503044548 52 0 0.0 2.0 0.00 0.00 0.00 69 1018.2
20260503043054 52 0 0.0 3.0 0.00 0.00 0.00 68 1018.2
20260503041553 52 0 0.0 0.0 0.00 0.00 0.00 68 1018.1
20260503040056 52 0 0.0 0.0 0.00 0.00 0.00 67 1018.0
20260503034555 53 0 0.0 0.0 0.00 0.00 0.00 66 1018.1
20260503033100 53 0 0.0 2.0 0.00 0.00 0.00 66 1018.0
20260503031552 54 276 0.0 3.0 0.00 0.00 0.00 65 1017.9
20260503030053 54 360 1.0 4.0 0.00 0.00 0.00 63 1017.9